星链-1838 (STARLINK-1838 )

导读

STARLINK-1838是美国太空探索技术公司星链星座中的一颗卫星,于2020年11月25日发射升空,属于星链项目低轨互联网卫星组网的一部分,运行在近地轨道,主要服务为全球范围内提供高速低延迟的卫星互联网接入,助力星链完成全球通信网络覆盖的构建。

基本信息
目录编号:
47129
目录名称:
STARLINK-1838
国际标识:
2020-088H
轨道中心:
EARTH
卫星名称:
星链-1838
卫星全名:
星链-1838 (STARLINK-1838 )
卫星状态:
已陨落 最后检测时间 2025-05-08
发射日期:
2020-11-25 UTC
国别 :
美国 (US)
星等 :
--
轨道信息
数据来源 国际轨道数据
星历时间: 2025-05-08T10:42:47+0800
轨道信息已过期491天
半长轴: 6528.049km
偏心率: 0.0004123
轨道倾角: 53.008°
近地点辐角 289.295°
升交点赤经 164.128°
平近点角 169.214°
近地点: 147.222km
远地点: 152.606km
周期: 87.485分钟
每日圈数: 16.459919
详细信息
固有亮度:
5
最大亮度:
2.5
卫星平台:
Starlink V1.0
覆盖范围:
全球
运营商:
太空探索技术公司
运营商所在国:
美国
制造商(研发单位):
太空探索技术公司
制造商所在国:
美国
使用方式:
暂无
卫星简介
星链(Starlink)计划是由太空探索技术公司(SpaceX)提出的一个巨型低轨卫星互联网星座项目,计划在2019年至2024年间在太空搭建由约1.2万颗卫星组成的“星链”网络,其中1584颗将部署在地球上空550千米处的近地轨道,并从2020年开始工作。该卫星仍在工作。
与全量物体交会距离演化趋势
与全量物体交会风险概率演化趋势